STARLINK-35877 (67049 NORAD) Tracking and Keplerian Element Data

This shows tracking and keplerian element data for the satellite.

Feedback or suggestion? Click here.




ElementValue
Catalog67049
NameSTARLINK-35877
Epoch Orbit151
Epoch Day354.25003472
Epoch Year2025
RAAN136.1963
Inclination43.0005
Eccentricity0.0001853
Argument of Perigee262.8834
Mean Anonmoly1.9753
Mean Motion15.89260889
Decay Rate-0.01443526
L11 67049U 25294V 25354.25003472 -.01443526 00000+0 -55345-2 0 9990
L22 67049 43.0005 136.1963 0001853 262.8834 1.9753 15.89260889 1517



Live tracking and technical data element details for STARLINK-35877 (NORAD 67049). STARLINK-35877 can be tracked NOW for your location showing map with azimuth and elevation plus other details from your city location.







IsCatalogInMostPopularTable: catalog: 67049, numindb: 16
Update: records affected: 1



GetName: 67049 STARLINK-35877

Hit Count: updated at: Fri, 16 Jan 2026 08:54:32 GMT